Regional Weather Roundup
Issued by NWS Grand Forks, ND

Home | Current Version | Previous Version | Text Only | Print | Product List | Glossary Off
Versions: 1 2 3 4 5 6 7 8 9 10 11 12 13 14 15 16 17 18 19 20 21 22 23 24 25 26 27 28 29 30 31 32 33 34 35 36 37 38 39 40 41 42 43 44 45 46 47 48 49 50

000
ASUS43 KFGF 250731
RWRFGF
PRAIRIE TO PINES  WEATHER ROUNDUP
NATIONAL WEATHER SERVICE EASTERN NORTH DAKOTA/GRAND FORKS ND
200 AM CDT FRI JUL 25 2014

 **SATELLITE DATA USED TO AUGMENT SKY COVER AT AUTOMATED STATIONS**
 *****  WEATHER ACROSS EASTERN NORTH DAKOTA  *****

CITY           SKY/WX    TMP DP  RH WIND       PRES   REMARKS
GRAND FORKS    CLOUDY    70  61  73 SE7       29.77F
GRAND FRKS AFB CLOUDY    68  65  90 NE3       29.78F
GRAND FRKS NWS   N/A     68 N/A N/A SE7         N/A
DEVILS LAKE    CLOUDY    66  61  82 SE16      29.70F
FARGO          MOCLDY    69  62  78 E6        29.74F
WAHPETON ARPT  CLOUDY    64  59  82 S16       29.76S
$$

 ***** WEATHER ACROSS CENTRAL AND WESTERN NORTH DAKOTA  *****

CITY           SKY/WX    TMP DP  RH WIND       PRES   REMARKS
BISMARCK       PTCLDY    68  64  87 NW5       29.70R
MINOT          TSTM      67  66  97 E10       29.73F FOG
JAMESTOWN      CLOUDY    66  63  90 NE9       29.71F
MINOT AFB      DRIZZLE   68  68 100 SE10      29.72F
GARRISON         N/A     69  67  93 NE6       29.74S
WILLISTON      PTCLDY    59  54  83 N6        29.83S
DICKINSON      CLEAR     63  61  93 NW16      29.81R
HETTINGER      PTCLDY    65  59  81 NW20G31   29.79R
$$

 *****  OTHER AIRPORT OBSERVATIONS IN OUR AREA  *****

CITY           SKY/WX    TMP DP  RH WIND       PRES   REMARKS
WALHALLA         N/A     66  66 100 SE7         N/A
GRAFTON AIRPOR CLOUDY    66  63  88 E5        29.76F
VALLEY CITY AR CLOUDY    64  64 100 E8        29.76R
CANDO          FAIR      64  63  94 SW13      29.78R
CAVALIER APRT  CLOUDY    68  63  83 S8        29.75F
GWINNER        CLOUDY    66  66 100 E12       29.73F
SHEYENNE NWR     N/A     66  62  86 SE8       29.95S
ROLLA          LGT RAIN  64  64 100 SW8       29.82R
 ***** THE ABOVE OBSERVATIONS ARE NON NWS ARE NOT QUALITY
       CONTROLLED AND MAY MIS-REPORT RAIN FOR SNOW...
$$

  *****  WEATHER ACROSS NORTHERN MINNESOTA  *****

CITY           SKY/WX    TMP DP  RH WIND       PRES   REMARKS
FLAG ISLAND    MOCLDY    70  61  73 S8        29.83S
WARROAD        MOCLDY    63  59  88 E5        29.84R
ROSEAU         MOCLDY    63  57  82 NE3       29.82S
HALLOCK        MOCLDY    66  63  88 S5        29.77F
THF RVR FALLS  CLOUDY    66  61  82 SE7       29.81S
BAUDETTE       CLOUDY    64  57  78 VRB5      29.84F
WASKISH        PTCLDY    61  57  88 CALM      29.81F
CROOKSTON      CLOUDY    70  61  73 E7        29.79S
$$
  *****  WEATHER ACROSS CENTRAL AND WEST MINNESOTA  *****

CITY           SKY/WX    TMP DP  RH WIND       PRES   REMARKS
FOSSTON        CLOUDY    66  57  72 SE7       29.81S
BEMIDJI        CLOUDY    67  59  75 S7        29.82F
PARK RAPIDS    CLOUDY    66  61  84 SE8       29.83F
ELBOW LAKE     CLOUDY    65  60  82 SE14G20   29.77F
WADENA         CLOUDY    64  59  82 SE9       29.82F
DETROIT LAKES  MOCLDY    68  61  77 SE16G23   29.81F
MOORHEAD       CLOUDY    70  64  83 SE8       29.78R
FERGUS FALLS   MOCLDY    66  57  72 SE13      29.78F
MORRIS MN      MOCLDY    64  61  88 SE9       29.78R
STAPLES        MOCLDY    64  57  77 SE8       29.84S
$$
  *****  WEATHER ELSEWHERE ACROSS MINNESOTA  *****

CITY           SKY/WX    TMP DP  RH WIND       PRES   REMARKS
DULUTH         CLOUDY    65  57  75 SE6       29.89F
INTRNTL FALLS  MOCLDY    59  57  93 E5        29.85F
ELY            CLOUDY    55  54  94 CALM      29.91F
CLOQUET        CLOUDY    64  57  77 E5        29.87F
WHEATON        TSTM      63  61  94 SE8       29.79R
BRAINERD       CLOUDY    66  60  81 SE7       29.84F
HIBBING        MOCLDY    62  58  86 SE3       29.89F
ALEXANDRIA     MOCLDY    64  60  87 SE10      29.83F
SAINT CLOUD    MOCLDY    66  59  78 SE7       29.84F
MINNEAPOLIS    MOCLDY    68  59  73 SE9       29.87F
$$

  *****  WEATHER ACROSS SOUTH DAKOTA  *****

CITY           SKY/WX    TMP DP  RH WIND       PRES   REMARKS
SIOUX FALLS    MOCLDY    68  61  78 S12       29.71F
BROOKINGS      NOT AVBL
WATERTOWN      MOCLDY    65  63  93 S10       29.73F
HURON          CLOUDY    69  63  81 SE7       29.69F
SISSETON         N/A     64  63  96 SE13      29.74R
ABERDEEN       CLOUDY    67  65  93 S18G30    29.50F
MITCHELL       CLOUDY    72  64  76 SE10      29.67F
PIERRE         PTCLDY    72  67  84 SE8       29.67S
MOBRIDGE         N/A     70  65  84 MISG      29.63F
RAPID CITY     CLEAR     72  59  63 N18       29.82R
$$

  *****  SOME WEATHER IN NEARBY STATES *****

CITY           SKY/WX    TMP DP  RH WIND       PRES   REMARKS
GLASGOW MT     CLEAR     57  39  51 W6        29.89R
GREAT FALLS MT CLEAR     54  34  46 SW6       30.01R
CHEYENNE WY    CLEAR     71  51  49 SW14G23   30.12S
SCOTTSBLUFF NE CLEAR     80  53  39 SW10      29.90S
OMAHA NE       CLOUDY    76  61  59 SW16      29.93R THUNDER
DES MOINES IA  CLOUDY    68  59  73 SE13      29.89F
DAVENPORT IA   CLEAR     62  55  77 SE8       30.04F
CHICAGO IL     PTCLDY    59  48  67 SW3       30.07R
EAU CLAIRE WI  MOCLDY    67  60  78 S8        29.93F
LA CROSSE WI   CLEAR     66  60  81 SE6       29.95F
$$

  *****  SOME NATIONAL WEATHER *****

CITY           SKY/WX    TMP DP  RH WIND       PRES   REMARKS
LA GUARDIA NY  MOCLDY    70  55  59 N12       29.94R
RALEIGH NC     MOCLDY    68  64  88 CALM      30.00R
ATLANTA GA     PTCLDY    72  70  93 W6        30.00S
NEW ORLEANS LA MOCLDY    78  75  90 W5        29.99R
OKLAHOMA CITY  PTCLDY    74  68  81 S6        30.00S
ALBUQUERQUE NM CLEAR     77  40  26 S8        30.22R
SALT LAKE CITY PTCLDY    71  45  39 NW8       29.99R
LOS ANGELES CA PTCLDY    71  61  70 S6        29.82R
BOISE ID       CLEAR     59  31  34 S3        30.06R
SEATTLE WA     CLOUDY    60  50  69 NE6       30.22S
$$

*** WEATHER ACROSS MANITOBA...SASKATCHEWAN AND ONTARIO ***
                ***ONTARIO***

CITY           SKY/WX    TMP DP  RH WIND       PRES   REMARKS
GERALDTON      CLEAR     57  50  77 W6        29.86S
THUNDER BAY    CLEAR     52  52 100 CALM      29.91S
SIOUX LOOKOUT  PTCLDY    52  52 100 CALM      29.89F
TORONTO        PTCLDY    57  48  72 W5        30.03S
BIG TROUT LK   CLEAR     54  48  82 N5        29.78S
PICKLE LAKE    NOT AVBL
DRYDEN         CLEAR     63  57  82 E3        29.87F
KENORA         PTCLDY    63  57  82 S3        29.87F
$$
                *** MANITOBA***

CITY           SKY/WX    TMP DP  RH WIND       PRES   REMARKS
BRANDON        CLOUDY    66  63  88 S10       29.72F
DAUPHIN        PTCLDY    66  63  88 SE10      29.69R
ISLAND LAKE    PTCLDY    66  55  68 W5        29.82S
PILOT MOUND      N/A     64  61  88 SE12        N/A
THE PAS        PTCLDY    64  61  88 SE8       29.68F
THOMPSON       PTCLDY    54  52  94 CALM      29.79S
WINNIPEG       MOCLDY    66  61  82 E12       29.78F
LYNN LAKE      CLEAR     61  52  72 E5        29.78R
CHURCHILL      PTCLDY    52  48  87 NW7       29.88S
GILLAM         MOCLDY    54  46  76 CALM      29.86R
$$
                ***SASKATCHEWAN***

CITY           SKY/WX    TMP DP  RH WIND       PRES   REMARKS
ESTEVAN        PTCLDY    59  57  94 W8        29.79R
KINDERSLEY     PTCLDY    52  45  76 SW14G21   29.62R
LLOYDMINSTER   CLOUDY    52  50  93 E3        29.54F
PRINCE ALBERT  CLOUDY    59  57  94 SW10      29.59F
REGINA         CLEAR     52  52 100 SW8       29.79R
YORKTON        CLEAR     61  59  94 SE5       29.73F
N. BATTLEFORD  CLEAR     52  52 100 SE10      29.56F
LA RONGE       CLOUDY    64  61  88 E10       29.57F
SASKATOON      PTCLDY    55  55 100 S13       29.62F
SWIFT CURRENT  CLEAR     52  43  71 SW15G22   29.75S
$$
NOTE: THESE ARE AUTOMATED STATIONS WITH LIMITED QUALITY CONTROL
      "FAIR" INDICATES FEW OR NO CLOUDS BELOW 12,000 FEET WITH NO
      SIGNIFICANT WEATHER AND/OR OBSTRUCTIONS TO VISIBILITY.
      SKY/WX - SKY CONDITION AND SIGNIFICANT WEATHER.
      TMP - AIR TEMPERATURE.    DP   - DEWPOINT TEMPERATURE.
      RH  - RELATIVE HUMIDITY.  PRES - PRESSURE.
      HX  - HEAT INDEX.         WCI  - WIND CHILL INDEX.
$


USA.gov is the U.S. government's official web portal to all federal, state and local government web resources and services.